Back to catalog

COSMOS 2251 DEB

AliveLEO
NORAD 35476·DEBRIS·🇷🇺 Russia

Launched Jun 16, 1993 from Plesetsk Cosmodrome

Loading…

Next Passes (next 24 hours)

TLE

FreshSource: Space-Track

Epoch: Sep 13, 2026, 00:36 UTC

1 35476U 93036ALW 26256.02525383  .00006727  00000-0  85154-3 0  9993
2 35476  73.9732 239.2572 0013904 180.7686 238.1723 14.81925135919432

Track COSMOS 2251 DEB in real time with AllMySat

Download on the App Store